TimeCST,TemperatureF,Dew PointF,Humidity,Sea Level PressureIn,VisibilityMPH,Wind Direction,Wind SpeedMPH,Gust SpeedMPH,PrecipitationIn,Events,Conditions,WindDirDegrees,DateUTC
12:54 AM,41.0,30.0,65,30.25,10.0,SSE,8.1,-,N/A,,Clear,150,2012-11-15 06:54:00
1:54 AM,41.0,30.9,67,30.25,10.0,SSE,10.4,-,N/A,,Clear,160,2012-11-15 07:54:00
2:54 AM,39.9,30.0,68,30.25,10.0,SSE,4.6,-,N/A,,Clear,150,2012-11-15 08:54:00
3:54 AM,39.9,30.0,68,30.25,10.0,ESE,3.5,-,N/A,,Clear,120,2012-11-15 09:54:00
4:54 AM,39.9,28.9,65,30.26,10.0,ESE,5.8,-,N/A,,Clear,120,2012-11-15 10:54:00
5:54 AM,39.0,28.9,67,30.26,10.0,SE,6.9,-,N/A,,Clear,140,2012-11-15 11:54:00
6:54 AM,37.0,30.0,76,30.27,10.0,South,9.2,-,N/A,,Clear,170,2012-11-15 12:54:00
7:54 AM,41.0,32.0,70,30.29,10.0,SSE,5.8,-,N/A,,Clear,150,2012-11-15 13:54:00
8:54 AM,46.9,34.0,61,30.30,10.0,South,6.9,-,N/A,,Clear,170,2012-11-15 14:54:00
9:54 AM,51.1,33.1,50,30.30,10.0,SSW,10.4,-,N/A,,Clear,200,2012-11-15 15:54:00
10:54 AM,57.0,33.1,40,30.32,10.0,SSW,11.5,-,N/A,,Clear,210,2012-11-15 16:54:00
11:54 AM,57.9,34.0,41,30.31,10.0,SSW,10.4,-,N/A,,Clear,210,2012-11-15 17:54:00
12:54 PM,60.1,35.1,39,30.28,10.0,Variable,4.6,-,N/A,,Clear,0,2012-11-15 18:54:00
1:54 PM,60.1,35.1,39,30.26,10.0,South,4.6,-,N/A,,Clear,170,2012-11-15 19:54:00
2:54 PM,61.0,34.0,36,30.26,10.0,SSE,5.8,-,N/A,,Clear,160,2012-11-15 20:54:00
3:54 PM,61.0,33.1,35,30.27,10.0,SE,4.6,-,N/A,,Clear,130,2012-11-15 21:54:00
4:54 PM,59.0,33.1,38,30.29,9.0,East,4.6,-,N/A,,Clear,90,2012-11-15 22:54:00
5:54 PM,55.9,33.1,42,30.31,10.0,East,4.6,-,N/A,,Clear,100,2012-11-15 23:54:00
6:54 PM,46.9,36.0,66,30.35,10.0,Calm,Calm,-,N/A,,Clear,0,2012-11-16 00:54:00
7:54 PM,44.1,35.1,71,30.35,10.0,East,3.5,-,N/A,,Clear,80,2012-11-16 01:54:00
8:54 PM,44.1,33.1,65,30.37,10.0,Calm,Calm,-,N/A,,Clear,0,2012-11-16 02:54:00
9:54 PM,42.1,33.1,70,30.38,10.0,Calm,Calm,-,N/A,,Clear,0,2012-11-16 03:54:00
10:54 PM,37.9,32.0,79,30.38,10.0,Calm,Calm,-,N/A,,Clear,0,2012-11-16 04:54:00
11:54 PM,39.0,33.1,79,30.39,10.0,Calm,Calm,-,N/A,,Clear,0,2012-11-16 05:54:00